| time (UTC) | temp F | wind direction | speed knots | gust knots | rain 1hr in | rain 24hr in | rain mn in | humidity % | barometer mb |
| 20260507090005 | 57 | 110 | 7.0 | 0.0 | 0.00 | 0.00 | 0.00 | 76 | 1011.0 |
| 20260507084504 | 57 | 110 | 7.0 | 0.0 | 0.00 | 0.00 | 0.00 | 76 | 1011.0 |
| 20260507071504 | 54 | 0 | 0.9 | 0.0 | 0.00 | 0.00 | 0.00 | 93 | 1011.0 |
| 20260507061504 | 50 | 230 | 4.3 | 0.0 | 0.00 | 0.00 | 0.00 | 93 | 1011.0 |
| 20260507054504 | 48 | 0 | 0.9 | 0.0 | 0.00 | 0.00 | 0.00 | 100 | 1011.0 |
| 20260507051504 | 50 | 0 | 0.9 | 0.0 | 0.00 | 0.00 | 0.00 | 93 | 1011.0 |
| 20260507050005 | 50 | 210 | 2.6 | 0.0 | 0.00 | 0.00 | 0.00 | 93 | 1012.0 |
| 20260507044504 | 50 | 210 | 2.6 | 0.0 | 0.00 | 0.00 | 0.00 | 93 | 1012.0 |
| 20260507041504 | 52 | 180 | 1.7 | 0.0 | 0.00 | 0.00 | 0.00 | 87 | 1012.0 |
| 20260507023004 | 52 | 200 | 1.7 | 0.0 | 0.00 | 0.00 | 0.00 | 93 | 1012.0 |
| 20260507021503 | 52 | 200 | 1.7 | 0.0 | 0.00 | 0.00 | 0.00 | 93 | 1012.0 |
| 20260507020005 | 52 | 150 | 1.7 | 0.0 | 0.00 | 0.00 | 0.00 | 93 | 1013.0 |
| 20260507014504 | 52 | 150 | 1.7 | 0.0 | 0.00 | 0.00 | 0.00 | 93 | 1013.0 |
| 20260507010004 | 54 | 0 | 1.7 | 0.0 | 0.00 | 0.00 | 0.00 | 93 | 1013.0 |
| 20260507004503 | 54 | 0 | 1.7 | 0.0 | 0.00 | 0.00 | 0.00 | 93 | 1013.0 |
| 20260507001504 | 54 | 210 | 4.3 | 0.0 | 0.00 | 0.00 | 0.00 | 93 | 1013.0 |
| 20260507000004 | 54 | 230 | 4.3 | 0.0 | 0.00 | 0.00 | 0.00 | 93 | 1013.0 |
| 20260506234505 | 54 | 230 | 4.3 | 0.0 | 0.00 | 0.00 | 0.00 | 93 | 1013.0 |
| 20260506233004 | 54 | 190 | 4.3 | 0.0 | 0.00 | 0.00 | 0.00 | 87 | 1014.0 |
| 20260506231504 | 54 | 190 | 4.3 | 0.0 | 0.00 | 0.00 | 0.00 | 87 | 1014.0 |
| 20260506230004 | 55 | 190 | 4.3 | 0.0 | 0.00 | 0.00 | 0.00 | 87 | 1014.0 |
| 20260506224503 | 55 | 190 | 4.3 | 0.0 | 0.00 | 0.00 | 0.00 | 87 | 1014.0 |
| 20260506221504 | 55 | 0 | 1.7 | 0.0 | 0.00 | 0.00 | 0.00 | 87 | 1014.0 |
| 20260506214504 | 55 | 0 | 1.7 | 0.0 | 0.00 | 0.00 | 0.00 | 87 | 1014.0 |
| 20260506213004 | 55 | 130 | 2.6 | 0.0 | 0.00 | 0.00 | 0.00 | 87 | 1014.0 |
| 20260506211504 | 55 | 130 | 2.6 | 0.0 | 0.00 | 0.00 | 0.00 | 87 | 1014.0 |
| 20260506204504 | 55 | 0 | 1.7 | 0.0 | 0.00 | 0.00 | 0.00 | 87 | 1014.0 |
| 20260506200004 | 57 | 0 | 0.9 | 0.0 | 0.00 | 0.00 | 0.00 | 87 | 1014.0 |
| 20260506194504 | 57 | 0 | 0.9 | 0.0 | 0.00 | 0.00 | 0.00 | 87 | 1014.0 |
| 20260506184504 | 57 | 310 | 4.3 | 0.0 | 0.00 | 0.00 | 0.00 | 82 | 1014.0 |
| 20260506183004 | 57 | 300 | 4.3 | 0.0 | 0.00 | 0.00 | 0.00 | 82 | 1014.0 |
| 20260506174504 | 59 | 310 | 6.1 | 0.0 | 0.00 | 0.00 | 0.00 | 76 | 1014.0 |
| 20260506173004 | 59 | 310 | 6.1 | 0.0 | 0.00 | 0.00 | 0.00 | 76 | 1014.0 |
| 20260506171504 | 59 | 310 | 6.1 | 0.0 | 0.00 | 0.00 | 0.00 | 76 | 1014.0 |
| 20260506163005 | 61 | 320 | 6.1 | 0.0 | 0.00 | 0.00 | 0.00 | 77 | 1014.0 |
| 20260506154504 | 59 | 310 | 6.1 | 0.0 | 0.00 | 0.00 | 0.00 | 76 | 1014.0 |
| 20260506151504 | 59 | 320 | 7.0 | 0.0 | 0.00 | 0.00 | 0.00 | 76 | 1014.0 |
| 20260506150004 | 59 | 310 | 7.0 | 0.0 | 0.00 | 0.00 | 0.00 | 76 | 1015.0 |
| 20260506140004 | 59 | 330 | 0.9 | 0.0 | 0.00 | 0.00 | 0.00 | 76 | 1015.0 |
| 20260506134504 | 59 | 330 | 0.9 | 0.0 | 0.00 | 0.00 | 0.00 | 76 | 1015.0 |
| 20260506133004 | 59 | 320 | 7.8 | 0.0 | 0.00 | 0.00 | 0.00 | 76 | 1015.0 |
| 20260506130005 | 61 | 290 | 10.4 | 0.0 | 0.00 | 0.00 | 0.00 | 72 | 1015.0 |
| 20260506124504 | 61 | 290 | 10.4 | 0.0 | 0.00 | 0.00 | 0.00 | 72 | 1015.0 |
| 20260506123004 | 59 | 300 | 0.9 | 0.0 | 0.00 | 0.00 | 0.00 | 72 | 1015.0 |
| 20260506121505 | 59 | 300 | 0.9 | 0.0 | 0.00 | 0.00 | 0.00 | 72 | 1015.0 |
| 20260506114503 | 63 | 300 | 7.8 | 0.0 | 0.00 | 0.00 | 0.00 | 77 | 1015.0 |
| 20260506111503 | 59 | 280 | 11.3 | 0.0 | 0.00 | 0.00 | 0.00 | 76 | 1015.0 |
| 20260506110005 | 61 | 290 | 7.8 | 0.0 | 0.00 | 0.00 | 0.00 | 72 | 1015.0 |
| 20260506104504 | 61 | 290 | 7.8 | 0.0 | 0.00 | 0.00 | 0.00 | 72 | 1015.0 |
| 20260506103005 | 57 | 280 | 5.2 | 0.0 | 0.00 | 0.00 | 0.00 | 76 | 1015.0 |
| 20260506101504 | 57 | 280 | 5.2 | 0.0 | 0.00 | 0.00 | 0.00 | 76 | 1015.0 |
| 20260506100004 | 57 | 250 | 6.1 | 0.0 | 0.00 | 0.00 | 0.00 | 76 | 1015.0 |
| 20260506094504 | 57 | 250 | 6.1 | 0.0 | 0.00 | 0.00 | 0.00 | 76 | 1015.0 |